| time (UTC) | temp C | wind direction | speed KPH | gust KPH | rain 1hr cm | rain 24hr cm | rain mn cm | humidity % | barometer mb |
| 20260506122520 | 19 | 218 | 3.2 | 9.7 | 0.00 | 0.00 | 0.00 | 72 | 1008.7 |
| 20260506121519 | 19 | 217 | 3.2 | 11.3 | 0.00 | 0.00 | 0.00 | 72 | 1008.9 |
| 20260506120519 | 19 | 237 | 4.8 | 17.7 | 0.00 | 0.00 | 0.00 | 72 | 1009.0 |
| 20260506115520 | 19 | 219 | 3.2 | 9.7 | 0.00 | 0.00 | 0.00 | 72 | 1009.2 |
| 20260506114542 | 19 | 220 | 4.8 | 9.7 | 0.00 | 0.00 | 0.00 | 72 | 1009.2 |
| 20260506113520 | 19 | 228 | 3.2 | 8.0 | 0.00 | 0.00 | 0.00 | 72 | 1009.1 |
| 20260506112520 | 18 | 222 | 1.6 | 8.0 | 0.00 | 0.00 | 0.00 | 73 | 1009.2 |
| 20260506111517 | 18 | 216 | 1.6 | 6.4 | 0.00 | 0.00 | 0.00 | 74 | 1009.1 |
| 20260506110539 | 17 | 239 | 1.6 | 6.4 | 0.00 | 0.00 | 0.00 | 77 | 1009.0 |
| 20260506105521 | 17 | 201 | 1.6 | 4.8 | 0.00 | 0.00 | 0.00 | 79 | 1009.0 |
| 20260506104522 | 17 | 201 | 0.0 | 4.8 | 0.00 | 0.00 | 0.00 | 81 | 1009.1 |
| 20260506103520 | 17 | 216 | 0.0 | 3.2 | 0.00 | 0.00 | 0.00 | 81 | 1009.0 |
| 20260506102518 | 17 | 224 | 0.0 | 1.6 | 0.00 | 0.00 | 0.00 | 81 | 1009.0 |
| 20260506101520 | 17 | 231 | 0.0 | 3.2 | 0.00 | 0.00 | 0.00 | 81 | 1009.0 |
| 20260506100540 | 16 | 215 | 0.0 | 3.2 | 0.00 | 0.00 | 0.00 | 81 | 1008.8 |
| 20260506095518 | 17 | 197 | 0.0 | 3.2 | 0.00 | 0.00 | 0.00 | 81 | 1008.8 |
| 20260506094522 | 17 | 237 | 0.0 | 3.2 | 0.00 | 0.00 | 0.00 | 80 | 1008.8 |
| 20260506093522 | 17 | 208 | 0.0 | 3.2 | 0.00 | 0.00 | 0.00 | 80 | 1008.8 |
| 20260506092519 | 17 | 237 | 0.0 | 3.2 | 0.00 | 0.00 | 0.00 | 80 | 1008.8 |
| 20260506091539 | 17 | 231 | 1.6 | 3.2 | 0.00 | 0.00 | 0.00 | 79 | 1008.9 |
| 20260506090519 | 17 | 226 | 1.6 | 4.8 | 0.00 | 0.00 | 0.00 | 79 | 1008.9 |
| 20260506085519 | 17 | 219 | 0.0 | 4.8 | 0.00 | 0.00 | 0.00 | 78 | 1009.0 |
| 20260506084521 | 17 | 241 | 0.0 | 3.2 | 0.00 | 0.00 | 0.00 | 78 | 1009.0 |
| 20260506083519 | 17 | 205 | 0.0 | 4.8 | 0.00 | 0.00 | 0.00 | 77 | 1009.1 |
| 20260506082521 | 17 | 211 | 0.0 | 3.2 | 0.00 | 0.00 | 0.00 | 76 | 1009.1 |
| 20260506081520 | 17 | 202 | 1.6 | 4.8 | 0.00 | 0.00 | 0.00 | 75 | 1009.1 |
| 20260506080519 | 18 | 234 | 1.6 | 3.2 | 0.00 | 0.00 | 0.00 | 75 | 1009.1 |
| 20260506072521 | 18 | 231 | 0.0 | 3.2 | 0.00 | 0.00 | 0.00 | 71 | 1009.1 |
| 20260506071520 | 18 | 206 | 1.6 | 3.2 | 0.00 | 0.00 | 0.00 | 71 | 1009.2 |
| 20260506070521 | 18 | 217 | 0.0 | 1.6 | 0.00 | 0.00 | 0.00 | 69 | 1009.2 |
| 20260506061543 | 19 | 207 | 0.0 | 3.2 | 0.00 | 0.00 | 0.00 | 66 | 1009.3 |
| 20260506060519 | 19 | 223 | 1.6 | 6.4 | 0.00 | 0.00 | 0.00 | 66 | 1009.2 |
| 20260506050539 | 20 | 231 | 3.2 | 8.0 | 0.00 | 0.00 | 0.00 | 62 | 1009.8 |
| 20260506044520 | 20 | 218 | 1.6 | 6.4 | 0.00 | 0.00 | 0.00 | 61 | 1009.8 |
| 20260506043541 | 20 | 229 | 3.2 | 9.7 | 0.00 | 0.00 | 0.00 | 60 | 1009.8 |
| 20260506042520 | 20 | 225 | 3.2 | 8.0 | 0.00 | 0.00 | 0.00 | 60 | 1009.7 |
| 20260506041540 | 20 | 225 | 3.2 | 6.4 | 0.00 | 0.00 | 0.00 | 59 | 1009.7 |
| 20260506040518 | 21 | 218 | 3.2 | 9.7 | 0.00 | 0.00 | 0.00 | 59 | 1009.7 |
| 20260506035521 | 21 | 223 | 3.2 | 8.0 | 0.00 | 0.00 | 0.00 | 59 | 1009.6 |
| 20260506034520 | 21 | 230 | 3.2 | 9.7 | 0.00 | 0.00 | 0.00 | 58 | 1009.7 |
| 20260506033521 | 21 | 223 | 3.2 | 8.0 | 0.00 | 0.00 | 0.00 | 58 | 1009.6 |
| 20260506032518 | 21 | 217 | 3.2 | 9.7 | 0.00 | 0.00 | 0.00 | 57 | 1009.6 |
| 20260506031518 | 21 | 232 | 3.2 | 8.0 | 0.00 | 0.00 | 0.00 | 57 | 1009.6 |
| 20260506030518 | 21 | 225 | 3.2 | 8.0 | 0.00 | 0.00 | 0.00 | 56 | 1009.5 |
| 20260506025521 | 22 | 206 | 3.2 | 9.7 | 0.00 | 0.00 | 0.00 | 55 | 1009.5 |
| 20260506024522 | 22 | 222 | 1.6 | 8.0 | 0.00 | 0.00 | 0.00 | 53 | 1009.5 |
| 20260506023523 | 22 | 197 | 1.6 | 4.8 | 0.00 | 0.00 | 0.00 | 51 | 1009.5 |
| 20260506022519 | 22 | 233 | 1.6 | 4.8 | 0.00 | 0.00 | 0.00 | 50 | 1009.5 |
| 20260506021519 | 23 | 229 | 0.0 | 3.2 | 0.00 | 0.00 | 0.00 | 48 | 1009.4 |
| 20260506020519 | 23 | 222 | 3.2 | 8.0 | 0.00 | 0.00 | 0.00 | 46 | 1009.2 |
| 20260506015519 | 23 | 225 | 3.2 | 9.7 | 0.00 | 0.00 | 0.00 | 45 | 1009.2 |
| 20260506014521 | 23 | 218 | 4.8 | 11.3 | 0.00 | 0.00 | 0.00 | 45 | 1009.0 |
| 20260506013520 | 24 | 227 | 3.2 | 8.0 | 0.00 | 0.00 | 0.00 | 44 | 1008.9 |
| 20260506012539 | 24 | 226 | 3.2 | 12.9 | 0.00 | 0.00 | 0.00 | 43 | 1008.8 |
| 20260506011520 | 24 | 219 | 3.2 | 9.7 | 0.00 | 0.00 | 0.00 | 43 | 1008.6 |
| 20260506010520 | 25 | 223 | 3.2 | 8.0 | 0.00 | 0.00 | 0.00 | 42 | 1008.6 |
| 20260506005519 | 25 | 231 | 4.8 | 9.7 | 0.00 | 0.00 | 0.00 | 40 | 1008.5 |
| 20260506004520 | 25 | 233 | 3.2 | 8.0 | 0.00 | 0.00 | 0.00 | 40 | 1008.4 |
| 20260506003600 | 25 | 226 | 3.2 | 6.4 | 0.00 | 0.00 | 0.00 | 38 | 1008.3 |
| 20260506002520 | 25 | 226 | 3.2 | 8.0 | 0.00 | 0.00 | 0.00 | 38 | 1008.1 |
| 20260506001520 | 25 | 222 | 3.2 | 11.3 | 0.00 | 0.00 | 0.00 | 37 | 1007.9 |
| 20260506000520 | 25 | 221 | 3.2 | 11.3 | 0.00 | 0.00 | 0.00 | 37 | 1007.9 |
| 20260505235522 | 26 | 219 | 1.6 | 6.4 | 0.00 | 0.00 | 0.00 | 36 | 1007.9 |
| 20260505234518 | 26 | 218 | 3.2 | 11.3 | 0.00 | 0.00 | 0.00 | 35 | 1007.8 |
| 20260505233519 | 26 | 223 | 4.8 | 9.7 | 0.00 | 0.00 | 0.00 | 35 | 1007.7 |
| 20260505232541 | 26 | 225 | 3.2 | 6.4 | 0.00 | 0.00 | 0.00 | 34 | 1007.6 |
| 20260505231523 | 26 | 234 | 4.8 | 11.3 | 0.00 | 0.00 | 0.00 | 34 | 1007.4 |
| 20260505230519 | 26 | 219 | 4.8 | 12.9 | 0.00 | 0.00 | 0.00 | 34 | 1007.4 |
| 20260505225540 | 26 | 230 | 4.8 | 14.5 | 0.00 | 0.00 | 0.00 | 33 | 1007.3 |
| 20260505224538 | 27 | 228 | 8.0 | 22.5 | 0.00 | 0.00 | 0.00 | 32 | 1007.1 |
| 20260505223520 | 27 | 237 | 8.0 | 16.1 | 0.00 | 0.00 | 0.00 | 32 | 1007.0 |
| 20260505222523 | 27 | 232 | 8.0 | 24.1 | 0.00 | 0.00 | 0.00 | 32 | 1007.0 |
| 20260505221519 | 27 | 210 | 3.2 | 14.5 | 0.00 | 0.00 | 0.00 | 33 | 1006.9 |
| 20260505220519 | 27 | 227 | 6.4 | 12.9 | 0.00 | 0.00 | 0.00 | 33 | 1006.9 |
| 20260505215559 | 27 | 222 | 6.4 | 12.9 | 0.00 | 0.00 | 0.00 | 33 | 1007.0 |
| 20260505214520 | 27 | 203 | 4.8 | 11.3 | 0.00 | 0.00 | 0.00 | 33 | 1006.8 |
| 20260505213520 | 27 | 226 | 6.4 | 16.1 | 0.00 | 0.00 | 0.00 | 34 | 1006.6 |
| 20260505212520 | 27 | 196 | 3.2 | 9.7 | 0.00 | 0.00 | 0.00 | 34 | 1006.5 |
| 20260505211540 | 28 | 222 | 4.8 | 19.3 | 0.00 | 0.00 | 0.00 | 33 | 1006.5 |
| 20260505210520 | 27 | 231 | 8.0 | 17.7 | 0.00 | 0.00 | 0.00 | 33 | 1006.5 |
| 20260505205523 | 28 | 225 | 6.4 | 16.1 | 0.00 | 0.00 | 0.00 | 32 | 1006.5 |
| 20260505204521 | 28 | 240 | 9.7 | 20.9 | 0.00 | 0.00 | 0.00 | 32 | 1006.5 |
| 20260505203521 | 28 | 234 | 9.7 | 27.4 | 0.00 | 0.00 | 0.00 | 33 | 1006.6 |
| 20260505202518 | 28 | 218 | 6.4 | 16.1 | 0.00 | 0.00 | 0.00 | 33 | 1006.7 |
| 20260505201519 | 28 | 215 | 3.2 | 9.7 | 0.00 | 0.00 | 0.00 | 34 | 1006.7 |
| 20260505200521 | 28 | 184 | 3.2 | 11.3 | 0.00 | 0.00 | 0.00 | 35 | 1006.8 |
| 20260505195521 | 28 | 220 | 3.2 | 9.7 | 0.00 | 0.00 | 0.00 | 35 | 1006.8 |
| 20260505194521 | 28 | 216 | 4.8 | 12.9 | 0.00 | 0.00 | 0.00 | 35 | 1006.8 |
| 20260505193538 | 28 | 219 | 3.2 | 9.7 | 0.00 | 0.00 | 0.00 | 35 | 1007.0 |
| 20260505192519 | 28 | 230 | 6.4 | 14.5 | 0.00 | 0.00 | 0.00 | 34 | 1007.3 |
| 20260505191518 | 28 | 196 | 3.2 | 8.0 | 0.00 | 0.00 | 0.00 | 35 | 1007.3 |
| 20260505190519 | 28 | 222 | 4.8 | 14.5 | 0.00 | 0.00 | 0.00 | 35 | 1007.3 |
| 20260505185519 | 28 | 203 | 4.8 | 12.9 | 0.00 | 0.00 | 0.00 | 35 | 1007.5 |
| 20260505184519 | 28 | 210 | 4.8 | 12.9 | 0.00 | 0.00 | 0.00 | 37 | 1007.7 |
| 20260505183518 | 27 | 227 | 4.8 | 11.3 | 0.00 | 0.00 | 0.00 | 38 | 1007.9 |
| 20260505182519 | 27 | 220 | 4.8 | 11.3 | 0.00 | 0.00 | 0.00 | 37 | 1007.9 |
| 20260505181519 | 27 | 233 | 8.0 | 17.7 | 0.00 | 0.00 | 0.00 | 37 | 1008.0 |
| 20260505180519 | 27 | 227 | 8.0 | 19.3 | 0.00 | 0.00 | 0.00 | 38 | 1008.1 |
| 20260505175519 | 28 | 232 | 8.0 | 14.5 | 0.00 | 0.00 | 0.00 | 39 | 1008.2 |
| 20260505174520 | 27 | 150 | 3.2 | 8.0 | 0.00 | 0.00 | 0.00 | 41 | 1008.3 |
| 20260505173520 | 27 | 234 | 1.6 | 6.4 | 0.00 | 0.00 | 0.00 | 43 | 1008.4 |
| 20260505172519 | 27 | 219 | 1.6 | 6.4 | 0.00 | 0.00 | 0.00 | 44 | 1008.5 |
| 20260505171521 | 27 | 230 | 3.2 | 11.3 | 0.00 | 0.00 | 0.00 | 43 | 1008.7 |
| 20260505170520 | 27 | 230 | 4.8 | 11.3 | 0.00 | 0.00 | 0.00 | 43 | 1008.7 |
| 20260505165517 | 26 | 234 | 3.2 | 8.0 | 0.00 | 0.00 | 0.00 | 43 | 1008.9 |
| 20260505164538 | 26 | 207 | 1.6 | 9.7 | 0.00 | 0.00 | 0.00 | 45 | 1009.1 |
| 20260505163521 | 26 | 229 | 3.2 | 9.7 | 0.00 | 0.00 | 0.00 | 45 | 1009.2 |
| 20260505162521 | 26 | 200 | 1.6 | 8.0 | 0.00 | 0.00 | 0.00 | 46 | 1009.3 |
| 20260505161520 | 26 | 233 | 4.8 | 11.3 | 0.00 | 0.00 | 0.00 | 45 | 1009.4 |
| 20260505160518 | 25 | 230 | 3.2 | 11.3 | 0.00 | 0.00 | 0.00 | 46 | 1009.5 |
| 20260505152541 | 25 | 228 | 3.2 | 9.7 | 0.00 | 0.00 | 0.00 | 47 | 1010.0 |
| 20260505151521 | 25 | 205 | 1.6 | 6.4 | 0.00 | 0.00 | 0.00 | 48 | 1010.0 |
| 20260505150522 | 23 | 227 | 1.6 | 6.4 | 0.00 | 0.00 | 0.00 | 50 | 1010.1 |
| 20260505140520 | 22 | 18 | 0.0 | 3.2 | 0.00 | 0.00 | 0.00 | 54 | 1010.4 |
| 20260505124541 | 20 | 234 | 0.0 | 3.2 | 0.00 | 0.00 | 0.00 | 62 | 1010.2 |
| 20260505123521 | 18 | 252 | 0.0 | 3.2 | 0.00 | 0.00 | 0.00 | 65 | 1010.2 |